Auburn, IN

10:06 PM EDT on July 24, 2017 (GMT -0400)
Auburn

Weather History for KGWB - December, 2012

Change the Weather History Date:

Saturday, December 29, 2012

  Actual Average (KFWA) Record (KFWA)
Temperature  
Mean Temperature 30 °F -  
Max Temperature 32 °F 32 °F 63 °F (1984)
Min Temperature 28 °F 18 °F -5 °F (1909)
Degree Days  
Heating Degree Days 35    
Moisture  
Dew Point 27 °F    
Average Humidity 89    
Maximum Humidity 93    
Minimum Humidity 80    
Precipitation  
Precipitation 0.02 in - - ()
Sea Level Pressure  
Sea Level Pressure 29.89 in    
Wind  
Wind Speed 6 mph (NW)    
Max Wind Speed 13 mph    
Max Gust Speed 17 mph    
Visibility 4 miles    
Events Snow    
Averages and records for this station are not official NWS values.
T = Trace of Precipitation, MM = Missing Value Source: NWS Daily Summary

Daily Weather History Graph

Daily Weather History Graph

Search for Another Location

Airport or City:

Trip Planner

Search our weather history database for the weather conditions in past years. The results will help you decide how hot, cold, wet, or windy it might be!

Date:

Astronomy

Dec. 29, 2012 Rise Set
Actual Time 8:05 AM EST 5:19 PM EST
Civil Twilight 7:34 AM EST 5:50 PM EST
Nautical Twilight 6:59 AM EST 6:25 PM EST
Astronomical Twilight 6:26 AM EST 6:59 PM EST
Moon 6:52 PM EST (12/29) 8:37 AM EST (12/29)
Length of Visible Light 10h 16m
Length of Day
9h 13m
Full, 98% of the Moon is Illuminated
Dec 29
Full
Jan 4
Last Quarter
Jan 11
New
Jan 18
First Quarter
Jan 26
Full

Hourly Weather History & Observations

Time (EST) Temp. Windchill Dew Point Humidity Pressure Visibility Wind Dir Wind Speed Gust Speed Precip Events Conditions
12:15 AM 28.4 °F 24.6 °F 26.6 °F 93% 29.88 in 2.5 mi East 3.5 mph - N/A Snow Light Snow
12:35 AM 28.4 °F 23.3 °F 26.6 °F 93% 29.85 in 2.0 mi ENE 4.6 mph - N/A Snow Light Snow
12:55 AM 28.4 °F 23.3 °F 26.6 °F 93% 29.85 in 1.8 mi East 4.6 mph - N/A Snow Light Snow
1:15 AM 28.4 °F 22.2 °F 26.6 °F 93% 29.84 in 1.5 mi ENE 5.8 mph - N/A Snow Light Snow
1:35 AM 28.4 °F 23.3 °F 26.6 °F 93% 29.83 in 1.5 mi ENE 4.6 mph - N/A Snow Light Snow
1:55 AM 28.4 °F 23.3 °F 26.6 °F 93% 29.83 in 1.2 mi ENE 4.6 mph - N/A Snow Light Snow
2:15 AM 28.4 °F 22.2 °F 26.6 °F 93% 29.81 in 1.5 mi NE 5.8 mph - N/A Snow Light Snow
2:35 AM 28.4 °F 24.6 °F 26.6 °F 93% 29.82 in 1.8 mi NE 3.5 mph - 0.01 in Snow Light Snow
2:55 AM 28.4 °F 23.3 °F 26.6 °F 93% 29.82 in 2.0 mi NE 4.6 mph - 0.01 in Snow Light Snow
3:15 AM 28.4 °F 23.3 °F 26.6 °F 93% 29.82 in 2.0 mi NE 4.6 mph - N/A Snow Light Snow
3:35 AM 28.4 °F 23.3 °F 26.6 °F 93% 29.82 in 2.0 mi NE 4.6 mph - N/A Snow Light Snow
3:55 AM 28.4 °F 24.6 °F 26.6 °F 93% 29.82 in 1.8 mi NE 3.5 mph - N/A Snow Light Snow
4:15 AM 28.4 °F 23.3 °F 26.6 °F 93% 29.81 in 1.8 mi NNE 4.6 mph - N/A Snow Light Snow
4:35 AM 28.4 °F 23.3 °F 26.6 °F 93% 29.80 in 2.0 mi NNE 4.6 mph - N/A Snow Light Snow
4:55 AM 28.4 °F 23.3 °F 26.6 °F 93% 29.80 in 2.0 mi NNE 4.6 mph - N/A Snow Light Snow
5:15 AM 28.4 °F 24.6 °F 26.6 °F 93% 29.80 in 1.8 mi NNE 3.5 mph - 0.01 in Snow Light Snow
5:35 AM 28.4 °F 23.3 °F 26.6 °F 93% 29.80 in 2.0 mi NNW 4.6 mph - 0.01 in Snow Light Snow
5:55 AM 28.4 °F 24.6 °F 26.6 °F 93% 29.80 in 2.5 mi North 3.5 mph - 0.01 in Snow Light Snow
6:15 AM 28.4 °F 24.6 °F 26.6 °F 93% 29.80 in 2.5 mi North 3.5 mph - N/A Snow Light Snow
6:35 AM 28.4 °F 23.3 °F 26.6 °F 93% 29.80 in 3.0 mi North 4.6 mph - N/A   Overcast
6:55 AM 28.4 °F 24.6 °F 26.6 °F 93% 29.80 in 2.0 mi NNW 3.5 mph - N/A   Overcast
7:15 AM 28.4 °F 24.6 °F 26.6 °F 93% 29.81 in 3.0 mi NNW 3.5 mph - N/A Snow Light Snow
7:35 AM 28.4 °F 24.6 °F 26.6 °F 93% 29.81 in 4.0 mi NNW 3.5 mph - N/A Snow Light Snow
7:55 AM 28.4 °F 23.3 °F 26.6 °F 93% 29.81 in 4.0 mi NW 4.6 mph - N/A   Overcast
8:15 AM 28.4 °F 23.3 °F 26.6 °F 93% 29.81 in 5.0 mi NW 4.6 mph - N/A   Overcast
8:35 AM 28.4 °F 23.3 °F 26.6 °F 93% 29.81 in 4.0 mi NW 4.6 mph - N/A   Overcast
8:55 AM 28.4 °F 23.3 °F 26.6 °F 93% 29.82 in 4.0 mi NW 4.6 mph - N/A   Overcast
9:15 AM 28.4 °F 23.3 °F 26.6 °F 93% 29.83 in 3.0 mi NW 4.6 mph - N/A   Overcast
9:35 AM 28.4 °F 22.2 °F 26.6 °F 93% 29.83 in 3.0 mi WNW 5.8 mph - N/A   Overcast
9:55 AM 28.4 °F 22.2 °F 26.6 °F 93% 29.84 in 4.0 mi NW 5.8 mph - N/A   Overcast
10:15 AM 28.4 °F 23.3 °F 26.6 °F 93% 29.85 in 4.0 mi NW 4.6 mph - N/A   Overcast
10:35 AM 30.2 °F 25.4 °F 26.6 °F 86% 29.85 in 4.0 mi WNW 4.6 mph - N/A   Overcast
10:55 AM 30.2 °F 24.3 °F 26.6 °F 86% 29.86 in 4.0 mi NW 5.8 mph - N/A   Overcast
11:15 AM 30.2 °F 24.3 °F 26.6 °F 86% 29.86 in 4.0 mi WNW 5.8 mph - N/A   Overcast
11:35 AM 30.2 °F 24.3 °F 26.6 °F 86% 29.86 in 5.0 mi NW 5.8 mph - N/A   Overcast
11:55 AM 30.2 °F 23.4 °F 26.6 °F 86% 29.85 in 5.0 mi WNW 6.9 mph - N/A   Haze
12:15 PM 30.2 °F 23.4 °F 26.6 °F 86% 29.86 in 5.0 mi WNW 6.9 mph - N/A   Haze
12:35 PM 30.2 °F 22.6 °F 26.6 °F 86% 29.85 in 4.0 mi WNW 8.1 mph - N/A   Haze
12:55 PM 30.2 °F 22.6 °F 26.6 °F 86% 29.85 in 3.0 mi WNW 8.1 mph - N/A   Haze
1:15 PM 30.2 °F 22.6 °F 26.6 °F 86% 29.85 in 3.0 mi WNW 8.1 mph - N/A Snow Light Snow
1:35 PM 30.2 °F 22.6 °F 26.6 °F 86% 29.85 in 3.0 mi WNW 8.1 mph - N/A Snow Light Snow
1:55 PM 30.2 °F 22.6 °F 26.6 °F 86% 29.85 in 2.5 mi WNW 8.1 mph - N/A Snow Light Snow
2:15 PM 32.0 °F 27.5 °F 26.6 °F 80% 29.86 in 2.0 mi NW 4.6 mph - N/A Snow Light Snow
2:35 PM 32.0 °F 25.6 °F 26.6 °F 80% 29.85 in 2.5 mi NW 6.9 mph - N/A Snow Light Snow
2:55 PM 32.0 °F 24.8 °F 26.6 °F 80% 29.86 in 4.0 mi WNW 8.1 mph - N/A Snow Light Snow
3:35 PM 32.0 °F 25.6 °F 26.6 °F 80% 29.89 in 2.5 mi WNW 6.9 mph - N/A Snow Light Snow
3:55 PM 32.0 °F 25.6 °F 26.6 °F 80% 29.90 in 2.5 mi WNW 6.9 mph - N/A Snow Light Snow
4:15 PM 32.0 °F 24.8 °F 26.6 °F 80% 29.91 in 2.0 mi WNW 8.1 mph - N/A Snow Light Snow
4:35 PM 32.0 °F 25.6 °F 26.6 °F 80% 29.91 in 2.0 mi WNW 6.9 mph - N/A Snow Light Snow
4:55 PM 32.0 °F 24.8 °F 28.4 °F 87% 29.92 in 1.8 mi West 8.1 mph - N/A Snow Light Snow
5:15 PM 32.0 °F 25.6 °F 28.4 °F 87% 29.93 in 2.0 mi WNW 6.9 mph - N/A Snow Light Snow
5:35 PM 32.0 °F 24.8 °F 28.4 °F 87% 29.94 in 3.0 mi WNW 8.1 mph - N/A Snow Light Snow
5:55 PM 32.0 °F 25.6 °F 28.4 °F 87% 29.95 in 3.0 mi West 6.9 mph - N/A Snow Light Snow
6:15 PM 30.2 °F 21.9 °F 28.4 °F 93% 29.96 in 4.0 mi West 9.2 mph - N/A Snow Light Snow
6:35 PM 30.2 °F 20.2 °F 28.4 °F 93% 29.97 in 4.0 mi West 12.7 mph - N/A Snow Light Snow
6:55 PM 30.2 °F 20.8 °F 26.6 °F 86% 29.98 in 4.0 mi West 11.5 mph - N/A Snow Light Snow
7:15 PM 30.2 °F 21.9 °F 26.6 °F 86% 29.99 in 3.0 mi WNW 9.2 mph - N/A Snow Light Snow
7:35 PM 30.2 °F 20.8 °F 26.6 °F 86% 30.00 in 4.0 mi West 11.5 mph - N/A Snow Light Snow
8:15 PM 30.2 °F 22.6 °F 26.6 °F 86% 30.02 in 4.0 mi West 8.1 mph - N/A Snow Light Snow
8:35 PM 30.2 °F 22.6 °F 26.6 °F 86% 30.03 in 3.0 mi West 8.1 mph - N/A Snow Light Snow
8:55 PM 30.2 °F 22.6 °F 26.6 °F 86% 30.04 in 4.0 mi West 8.1 mph - N/A Snow Light Snow
9:15 PM 30.2 °F 21.3 °F 26.6 °F 86% 30.04 in 5.0 mi West 10.4 mph - N/A Snow Light Snow
9:35 PM 30.2 °F 22.6 °F 26.6 °F 86% 30.05 in 7.0 mi West 8.1 mph - N/A   Overcast
9:55 PM 30.2 °F 21.9 °F 26.6 °F 86% 30.07 in 7.0 mi West 9.2 mph - N/A   Overcast
10:15 PM 30.2 °F 21.9 °F 26.6 °F 86% 30.07 in 7.0 mi West 9.2 mph - N/A   Overcast
10:35 PM 28.4 °F 19.7 °F 24.8 °F 86% 30.08 in 7.0 mi West 9.2 mph 17.3 mph N/A   Overcast
10:55 PM 28.4 °F 19.7 °F 24.8 °F 86% 30.09 in 7.0 mi West 9.2 mph - N/A   Overcast
11:15 PM 28.4 °F 20.4 °F 24.8 °F 86% 30.10 in 10.0 mi West 8.1 mph - N/A   Overcast
11:35 PM 28.4 °F 19.7 °F 24.8 °F 86% 30.11 in 10.0 mi West 9.2 mph - N/A   Overcast
11:55 PM 28.4 °F 18.5 °F 24.8 °F 86% 30.12 in 10.0 mi West 11.5 mph - N/A   Overcast